This is the latest recevied weather packets stored in our database for station/object NN3A-3. If no packets are shown the sender has not sent any weather packets the latest 10 day(s).
| Time | Temp. | Humidity | Pressure | Rain* | Wind** | Luminosity | Snow |
|---|---|---|---|---|---|---|---|
| 1778119030 | 11.11° C | 95% | 1009.3 hPa | 0 mm | - | - | - |
| 1778118731 | 10.56° C | 95% | 1009.6 hPa | 0 mm | - | - | - |
| 1778118431 | 10.56° C | 94% | 1009.3 hPa | 0 mm | - | - | - |
| 1778118130 | 10.56° C | 95% | 1009.6 hPa | 0 mm | - | - | - |
| 1778117531 | 11.11° C | 95% | 1009.6 hPa | 0 mm | - | - | - |
| 1778117231 | 10° C | 94% | 1009.3 hPa | 0 mm | - | - | - |
| 1778116632 | 10.56° C | 94% | 1009.3 hPa | 0 mm | - | - | - |
| 1778116331 | 10.56° C | 94% | 1009.3 hPa | 0 mm | - | - | - |
| 1778115733 | 10.56° C | 94% | 1009.6 hPa | 0 mm | - | - | - |
| 1778115433 | 10° C | 94% | 1009.6 hPa | 0 mm | - | - | - |
| 1778115134 | 10° C | 94% | 1009.6 hPa | 0 mm | - | - | - |
| 1778114833 | 10.56° C | 94% | 1009.6 hPa | 0 mm | - | - | - |
| 1778113933 | 11.11° C | 94% | 1010 hPa | 0 mm | - | - | - |
| 1778113633 | 10.56° C | 94% | 1010 hPa | 0 mm | - | - | - |
| 1778113333 | 11.11° C | 94% | 1010 hPa | 0 mm | - | - | - |
| 1778113033 | 11.11° C | 94% | 1010.3 hPa | 0 mm | - | - | - |
| 1778112733 | 10.56° C | 94% | 1010 hPa | 0 mm | - | - | - |
| 1778112133 | 10.56° C | 94% | 1009.6 hPa | 0 mm | - | - | - |
| 1778111835 | 11.11° C | 94% | 1009.6 hPa | 0 mm | - | - | - |
| 1778111534 | 11.11° C | 94% | 1009.3 hPa | 0 mm | - | - | - |
| 1778110934 | 10.56° C | 94% | 1009.6 hPa | 0 mm | - | - | - |
| 1778110335 | 10.56° C | 95% | 1009.6 hPa | 0 mm | - | - | - |
| 1778110035 | 11.67° C | 95% | 1009.3 hPa | 0 mm | - | - | - |
| 1778109735 | 10.56° C | 95% | 1009.3 hPa | 0 mm | - | - | - |
| 1778109436 | 10.56° C | 95% | 1009.3 hPa | 0 mm | - | - | - |
* Rain latest hour (hover to see other rain measurements)
** Current wind speed in m/s (hover to see current wind gust speed)